TURKMENALEM52E/MONACOSAT

Last updated on Sun Jun 21 2026 00:03:06 GMT+0000 (Coordinated Universal Time)

1 40617U 15023A 26171.40221052 .00000099 00000+0 00000+0 0 9998 2 40617 0.0450 81.1169 0002806 2.0749 22.2211 1.00272541 40885
UTC large
Height (km)
Speed (km/s)
/
Latitude / Longitude
Inclination (degrees)
Orbital Period (minutes)
Azimuth
Elevation
Range (km)
Doppler Factor

Next 0 passes for location: London (51.5072 / 0.1276)

No passes found over London.
TURKMENALEM52E/MONACOSAT